Time,TemperatureF,DewpointF,PressureIn,WindDirection,WindDirectionDegrees,WindSpeedMPH,WindSpeedGustMPH,Humidity,HourlyPrecipIn,Conditions,Clouds,dailyrainin,SoftwareType,DateUTC
2013-02-06 00:01:00,35.0,21.0,29.84,SSW,209,6.0,10.0,57,0.00,,,0.00,,2013-02-06 07:01:00,
2013-02-06 00:21:00,36.0,22.0,29.84,SW,229,8.0,13.0,56,0.00,,,0.00,,2013-02-06 07:21:00,
2013-02-06 00:32:00,36.0,23.0,29.84,WSW,242,9.0,12.0,58,0.00,,,0.00,,2013-02-06 07:32:00,
2013-02-06 00:41:00,36.0,23.0,29.84,WSW,242,9.0,12.0,58,0.00,,,0.00,,2013-02-06 07:41:00,
2013-02-06 00:52:00,36.0,23.0,29.84,SW,220,9.0,12.0,59,0.00,,,0.00,,2013-02-06 07:52:00,
2013-02-06 01:01:00,34.0,22.0,29.84,SW,234,4.0,7.0,61,0.00,,,0.00,,2013-02-06 08:01:00,
2013-02-06 01:21:00,34.0,23.0,29.84,SW,236,8.0,12.0,64,0.00,,,0.00,,2013-02-06 08:21:00,
2013-02-06 01:31:00,34.0,23.0,29.84,SW,230,9.0,16.0,65,0.00,,,0.00,,2013-02-06 08:31:00,
2013-02-06 01:41:00,34.0,23.0,29.84,SW,230,9.0,16.0,65,0.00,,,0.00,,2013-02-06 08:41:00,
2013-02-06 01:53:00,34.0,25.0,29.84,WSW,238,8.0,14.0,69,0.00,,,0.00,,2013-02-06 08:53:00,
2013-02-06 02:01:00,33.0,24.0,29.84,SW,232,8.0,12.0,68,0.00,,,0.00,,2013-02-06 09:01:00,
2013-02-06 02:21:00,33.0,24.0,29.85,WSW,250,9.0,16.0,69,0.00,,,0.00,,2013-02-06 09:21:00,
2013-02-06 02:31:00,33.0,23.0,29.85,WSW,239,9.0,14.0,66,0.00,,,0.00,,2013-02-06 09:31:00,
2013-02-06 02:41:00,33.0,23.0,29.85,WSW,239,9.0,14.0,66,0.00,,,0.00,,2013-02-06 09:41:00,
2013-02-06 02:52:00,34.0,23.0,29.85,WSW,244,9.0,12.0,65,0.00,,,0.00,,2013-02-06 09:52:00,
2013-02-06 03:01:00,34.0,22.0,29.85,SW,236,10.0,18.0,62,0.00,,,0.00,,2013-02-06 10:01:00,
2013-02-06 03:21:00,33.0,23.0,29.85,WSW,248,9.0,15.0,67,0.00,,,0.00,,2013-02-06 10:21:00,
2013-02-06 03:31:00,33.0,24.0,29.85,West,270,11.0,19.0,68,0.00,,,0.00,,2013-02-06 10:31:00,
2013-02-06 03:41:00,33.0,24.0,29.85,West,270,11.0,19.0,68,0.00,,,0.00,,2013-02-06 10:41:00,
2013-02-06 03:52:00,32.0,24.0,29.85,WSW,243,9.0,18.0,71,0.00,,,0.00,,2013-02-06 10:52:00,
2013-02-06 04:01:00,31.0,23.0,29.85,SW,232,9.0,14.0,73,0.00,,,0.00,,2013-02-06 11:01:00,
2013-02-06 04:21:00,31.0,24.0,29.85,SW,236,9.0,14.0,76,0.00,,,0.00,,2013-02-06 11:21:00,
2013-02-06 04:31:00,30.0,24.0,29.85,West,260,7.0,12.0,79,0.00,,,0.00,,2013-02-06 11:31:00,
2013-02-06 04:41:00,30.0,24.0,29.85,West,260,7.0,12.0,79,0.00,,,0.00,,2013-02-06 11:41:00,
2013-02-06 04:52:00,30.0,24.0,29.86,West,259,9.0,14.0,79,0.00,,,0.00,,2013-02-06 11:52:00,
2013-02-06 05:01:00,30.0,25.0,29.87,WSW,254,9.0,14.0,82,0.00,,,0.00,,2013-02-06 12:01:00,
2013-02-06 05:12:00,30.0,25.0,29.87,WSW,254,9.0,14.0,82,0.00,,,0.00,,2013-02-06 12:12:00,
2013-02-06 05:21:00,29.0,24.0,29.88,WSW,248,8.0,13.0,82,0.00,,,0.00,,2013-02-06 12:21:00,
2013-02-06 05:32:00,29.0,24.0,29.88,SW,216,8.0,14.0,82,0.00,,,0.00,,2013-02-06 12:32:00,
2013-02-06 05:41:00,29.0,24.0,29.88,SW,216,8.0,14.0,82,0.00,,,0.00,,2013-02-06 12:41:00,
2013-02-06 05:52:00,29.0,25.0,29.88,West,265,9.0,16.0,84,0.00,,,0.00,,2013-02-06 12:52:00,
2013-02-06 06:01:00,28.0,25.0,29.88,SW,234,6.0,11.0,87,0.00,,,0.00,,2013-02-06 13:01:00,
2013-02-06 06:11:00,28.0,25.0,29.88,SW,234,6.0,11.0,87,0.00,,,0.00,,2013-02-06 13:11:00,
2013-02-06 06:21:00,27.0,24.0,29.88,WSW,257,8.0,12.0,90,0.00,,,0.00,,2013-02-06 13:21:00,
2013-02-06 06:31:00,26.0,24.0,29.88,SW,229,7.0,11.0,92,0.00,,,0.00,,2013-02-06 13:31:00,
2013-02-06 06:41:00,26.0,24.0,29.88,SW,229,7.0,11.0,92,0.00,,,0.00,,2013-02-06 13:41:00,
2013-02-06 06:52:00,27.0,25.0,29.88,SW,223,10.0,13.0,92,0.00,,,0.00,,2013-02-06 13:52:00,
2013-02-06 07:01:00,27.0,25.0,29.89,SW,219,5.0,10.0,91,0.00,,,0.00,,2013-02-06 14:01:00,
2013-02-06 07:11:00,27.0,25.0,29.89,SW,219,5.0,10.0,91,0.00,,,0.00,,2013-02-06 14:11:00,
2013-02-06 07:21:00,26.0,24.0,29.90,SSW,205,0.0,3.0,91,0.00,,,0.00,,2013-02-06 14:21:00,
2013-02-06 07:31:00,26.0,24.0,29.90,SSW,205,2.0,3.0,92,0.00,,,0.00,,2013-02-06 14:31:00,
2013-02-06 07:41:00,26.0,24.0,29.90,SSW,205,2.0,3.0,92,0.00,,,0.00,,2013-02-06 14:41:00,
2013-02-06 07:52:00,27.0,25.0,29.91,West,261,6.0,8.0,93,0.00,,,0.00,,2013-02-06 14:52:00,
2013-02-06 08:01:00,27.0,25.0,29.91,WSW,249,6.0,14.0,92,0.00,,,0.00,,2013-02-06 15:01:00,
2013-02-06 08:11:00,27.0,25.0,29.92,WSW,256,7.0,11.0,92,0.00,,,0.00,,2013-02-06 15:11:00,
2013-02-06 08:21:00,27.0,25.0,29.92,WSW,256,7.0,11.0,92,0.00,,,0.00,,2013-02-06 15:21:00,
2013-02-06 08:31:00,27.0,25.0,29.92,West,259,7.0,11.0,93,0.00,,,0.00,,2013-02-06 15:31:00,
2013-02-06 08:41:00,27.0,25.0,29.92,West,259,7.0,11.0,93,0.00,,,0.00,,2013-02-06 15:41:00,
2013-02-06 08:52:00,27.0,26.0,29.93,WSW,254,12.0,16.0,94,0.00,,,0.00,,2013-02-06 15:52:00,
2013-02-06 09:01:00,27.0,26.0,29.94,SW,233,10.0,17.0,94,0.00,,,0.00,,2013-02-06 16:01:00,
2013-02-06 09:11:00,27.0,26.0,29.94,SW,233,10.0,17.0,94,0.00,,,0.00,,2013-02-06 16:11:00,
2013-02-06 09:21:00,27.0,26.0,29.94,WSW,243,14.0,23.0,95,0.00,,,0.00,,2013-02-06 16:21:00,
2013-02-06 09:31:00,27.0,26.0,29.95,WSW,244,16.0,21.0,94,0.00,,,0.00,,2013-02-06 16:31:00,
2013-02-06 09:41:00,27.0,26.0,29.95,WSW,244,16.0,21.0,94,0.00,,,0.00,,2013-02-06 16:41:00,
2013-02-06 09:52:00,27.0,25.0,29.96,WSW,239,11.0,18.0,93,0.00,,,0.00,,2013-02-06 16:52:00,
2013-02-06 10:01:00,27.0,25.0,29.97,SW,217,11.0,17.0,92,0.00,,,0.00,,2013-02-06 17:01:00,
2013-02-06 10:11:00,27.0,25.0,29.97,SW,217,11.0,17.0,92,0.00,,,0.00,,2013-02-06 17:11:00,
2013-02-06 10:21:00,27.0,25.0,29.97,SW,218,13.0,18.0,92,0.00,,,0.00,,2013-02-06 17:21:00,
2013-02-06 10:32:00,27.0,25.0,29.97,West,264,13.0,19.0,91,0.00,,,0.00,,2013-02-06 17:32:00,
2013-02-06 10:41:00,27.0,24.0,29.98,SW,224,15.0,23.0,90,0.00,,,0.00,,2013-02-06 17:41:00,
2013-02-06 10:52:00,27.0,24.0,29.98,SW,224,15.0,23.0,90,0.00,,,0.00,,2013-02-06 17:52:00,
2013-02-06 11:01:00,27.0,24.0,29.98,WSW,249,12.0,20.0,90,0.00,,,0.00,,2013-02-06 18:01:00,
2013-02-06 11:11:00,28.0,25.0,29.98,WSW,238,11.0,16.0,89,0.00,,,0.00,,2013-02-06 18:11:00,
2013-02-06 11:22:00,28.0,25.0,29.98,WSW,238,11.0,16.0,89,0.00,,,0.00,,2013-02-06 18:22:00,
2013-02-06 11:32:00,29.0,23.0,29.98,SW,215,8.0,15.0,78,0.00,,,0.00,,2013-02-06 18:32:00,
2013-02-06 11:41:00,29.0,23.0,29.98,SW,215,8.0,15.0,78,0.00,,,0.00,,2013-02-06 18:41:00,
2013-02-06 11:52:00,30.0,22.0,29.99,WSW,257,11.0,16.0,73,0.00,,,0.00,,2013-02-06 18:52:00,
2013-02-06 12:01:00,29.0,23.0,29.99,WSW,246,14.0,19.0,78,0.00,,,0.00,,2013-02-06 19:01:00,
2013-02-06 12:11:00,29.0,23.0,29.99,WSW,246,14.0,19.0,78,0.00,,,0.00,,2013-02-06 19:11:00,
2013-02-06 12:21:00,29.0,23.0,29.99,WSW,243,13.0,17.0,79,0.00,,,0.00,,2013-02-06 19:21:00,
2013-02-06 12:31:00,29.0,24.0,29.98,SW,220,12.0,17.0,80,0.00,,,0.00,,2013-02-06 19:31:00,
2013-02-06 12:41:00,29.0,24.0,29.98,SW,220,12.0,17.0,80,0.00,,,0.00,,2013-02-06 19:41:00,
2013-02-06 12:52:00,29.0,24.0,29.98,SW,234,11.0,21.0,81,0.00,,,0.00,,2013-02-06 19:52:00,
2013-02-06 13:01:00,29.0,23.0,29.98,WSW,257,11.0,19.0,78,0.00,,,0.00,,2013-02-06 20:01:00,
2013-02-06 13:11:00,29.0,23.0,29.98,SW,217,12.0,17.0,77,0.00,,,0.00,,2013-02-06 20:11:00,
2013-02-06 13:21:00,29.0,23.0,29.98,SW,217,12.0,17.0,77,0.00,,,0.00,,2013-02-06 20:21:00,
2013-02-06 13:31:00,29.0,23.0,29.98,WSW,238,11.0,20.0,78,0.00,,,0.00,,2013-02-06 20:31:00,
2013-02-06 13:41:00,29.0,23.0,29.98,WSW,238,11.0,20.0,78,0.00,,,0.00,,2013-02-06 20:41:00,
2013-02-06 13:52:00,29.0,24.0,29.98,SW,225,12.0,16.0,82,0.00,,,0.00,,2013-02-06 20:52:00,
2013-02-06 14:01:00,29.0,24.0,29.98,SW,224,9.0,15.0,82,0.00,,,0.00,,2013-02-06 21:01:00,
2013-02-06 14:11:00,29.0,24.0,29.98,SW,224,9.0,15.0,82,0.00,,,0.00,,2013-02-06 21:11:00,
2013-02-06 14:21:00,29.0,25.0,29.97,WSW,248,11.0,20.0,83,0.00,,,0.00,,2013-02-06 21:21:00,
2013-02-06 14:31:00,30.0,25.0,29.98,WSW,257,11.0,16.0,80,0.00,,,0.00,,2013-02-06 21:31:00,
2013-02-06 14:41:00,30.0,25.0,29.98,WSW,257,11.0,16.0,80,0.00,,,0.00,,2013-02-06 21:41:00,
2013-02-06 14:52:00,29.0,23.0,29.98,West,267,13.0,19.0,79,0.00,,,0.00,,2013-02-06 21:52:00,
2013-02-06 15:01:00,29.0,24.0,29.98,WNW,282,9.0,14.0,82,0.00,,,0.00,,2013-02-06 22:01:00,
2013-02-06 15:11:00,29.0,24.0,29.98,WNW,282,9.0,14.0,82,0.00,,,0.00,,2013-02-06 22:11:00,
2013-02-06 15:21:00,30.0,24.0,29.98,West,264,12.0,20.0,77,0.00,,,0.00,,2013-02-06 22:21:00,
2013-02-06 15:31:00,31.0,24.0,29.99,WSW,248,10.0,20.0,75,0.00,,,0.00,,2013-02-06 22:31:00,
2013-02-06 15:41:00,31.0,24.0,29.99,WSW,248,10.0,20.0,75,0.00,,,0.00,,2013-02-06 22:41:00,
2013-02-06 15:52:00,31.0,25.0,29.99,West,259,12.0,21.0,77,0.00,,,0.00,,2013-02-06 22:52:00,
2013-02-06 16:01:00,30.0,25.0,30.01,West,260,11.0,19.0,80,0.00,,,0.00,,2013-02-06 23:01:00,
2013-02-06 16:11:00,30.0,25.0,30.01,West,260,11.0,19.0,80,0.00,,,0.00,,2013-02-06 23:11:00,
2013-02-06 16:21:00,30.0,26.0,30.00,West,260,9.0,15.0,86,0.00,,,0.00,,2013-02-06 23:21:00,
2013-02-06 16:31:00,30.0,24.0,30.00,SW,229,10.0,15.0,78,0.00,,,0.00,,2013-02-06 23:31:00,
2013-02-06 16:41:00,30.0,24.0,30.00,SW,229,10.0,15.0,78,0.00,,,0.00,,2013-02-06 23:41:00,
2013-02-06 16:52:00,29.0,25.0,30.01,West,268,7.0,13.0,85,0.00,,,0.00,,2013-02-06 23:52:00,
2013-02-06 17:01:00,29.0,26.0,30.01,West,261,10.0,15.0,87,0.00,,,0.00,,2013-02-07 00:01:00,
2013-02-06 17:11:00,29.0,26.0,30.01,West,261,10.0,15.0,87,0.00,,,0.00,,2013-02-07 00:11:00,
2013-02-06 17:21:00,29.0,25.0,30.01,WSW,244,11.0,16.0,85,0.00,,,0.00,,2013-02-07 00:21:00,
2013-02-06 17:31:00,29.0,25.0,30.02,WSW,248,12.0,16.0,84,0.00,,,0.00,,2013-02-07 00:31:00,
2013-02-06 17:41:00,29.0,25.0,30.02,WSW,248,12.0,16.0,84,0.00,,,0.00,,2013-02-07 00:41:00,
2013-02-06 17:52:00,29.0,25.0,30.03,WSW,242,8.0,14.0,84,0.00,,,0.00,,2013-02-07 00:52:00,
2013-02-06 18:01:00,28.0,24.0,30.03,SW,223,7.0,12.0,85,0.00,,,0.00,,2013-02-07 01:01:00,
2013-02-06 18:11:00,28.0,24.0,30.03,SW,223,7.0,12.0,85,0.00,,,0.00,,2013-02-07 01:11:00,
2013-02-06 18:21:00,27.0,24.0,30.04,WSW,238,5.0,7.0,87,0.00,,,0.00,,2013-02-07 01:21:00,
2013-02-06 18:31:00,27.0,24.0,30.05,SW,229,5.0,8.0,88,0.00,,,0.00,,2013-02-07 01:31:00,
2013-02-06 18:41:00,27.0,24.0,30.05,SW,229,5.0,8.0,88,0.00,,,0.00,,2013-02-07 01:41:00,
2013-02-06 18:52:00,26.0,23.0,30.05,SW,229,3.0,6.0,88,0.00,,,0.00,,2013-02-07 01:52:00,
2013-02-06 19:01:00,26.0,23.0,30.05,SW,222,4.0,6.0,89,0.00,,,0.00,,2013-02-07 02:01:00,
2013-02-06 19:11:00,26.0,23.0,30.05,SW,222,4.0,6.0,89,0.00,,,0.00,,2013-02-07 02:11:00,
2013-02-06 19:21:00,26.0,23.0,30.05,SSW,212,6.0,8.0,88,0.00,,,0.00,,2013-02-07 02:21:00,
2013-02-06 19:31:00,26.0,22.0,30.05,SW,215,3.0,6.0,83,0.00,,,0.00,,2013-02-07 02:31:00,
2013-02-06 19:41:00,26.0,22.0,30.05,SW,215,3.0,6.0,83,0.00,,,0.00,,2013-02-07 02:41:00,
2013-02-06 19:51:00,26.0,22.0,30.05,SW,215,3.0,6.0,83,0.00,,,0.00,,2013-02-07 02:51:00,
2013-02-06 20:01:00,26.0,20.0,30.06,SW,217,1.0,5.0,77,0.00,,,0.00,,2013-02-07 03:01:00,
2013-02-06 20:11:00,26.0,20.0,30.06,SW,217,1.0,5.0,77,0.00,,,0.00,,2013-02-07 03:11:00,
2013-02-06 20:21:00,26.0,20.0,30.06,SW,217,0.0,2.0,78,0.00,,,0.00,,2013-02-07 03:21:00,
2013-02-06 20:31:00,26.0,20.0,30.06,SW,217,0.0,0.0,77,0.00,,,0.00,,2013-02-07 03:31:00,
2013-02-06 20:41:00,26.0,20.0,30.06,SW,217,0.0,0.0,77,0.00,,,0.00,,2013-02-07 03:41:00,
2013-02-06 20:52:00,26.0,20.0,30.06,SW,217,0.0,2.0,77,0.00,,,0.00,,2013-02-07 03:52:00,
2013-02-06 21:01:00,26.0,20.0,30.06,SW,217,0.0,2.0,77,0.00,,,0.00,,2013-02-07 04:01:00,
2013-02-06 21:11:00,26.0,20.0,30.06,SW,217,0.0,2.0,77,0.00,,,0.00,,2013-02-07 04:11:00,
2013-02-06 21:22:00,26.0,19.0,30.06,SW,217,1.0,3.0,76,0.00,,,0.00,,2013-02-07 04:22:00,
2013-02-06 21:31:00,25.0,19.0,30.06,SW,217,0.0,1.0,78,0.00,,,0.00,,2013-02-07 04:31:00,
2013-02-06 21:41:00,25.0,19.0,30.06,SW,217,0.0,1.0,78,0.00,,,0.00,,2013-02-07 04:41:00,
2013-02-06 21:53:00,25.0,19.0,30.07,SW,217,1.0,2.0,79,0.00,,,0.00,,2013-02-07 04:53:00,
2013-02-06 22:01:00,25.0,20.0,30.07,ESE,106,2.0,4.0,81,0.00,,,0.00,,2013-02-07 05:01:00,
2013-02-06 22:11:00,25.0,20.0,30.07,ESE,106,2.0,4.0,81,0.00,,,0.00,,2013-02-07 05:11:00,
2013-02-06 22:21:00,25.0,20.0,30.07,SE,133,3.0,6.0,80,0.00,,,0.00,,2013-02-07 05:21:00,
2013-02-06 22:31:00,25.0,19.0,30.07,ESE,121,4.0,5.0,79,0.00,,,0.00,,2013-02-07 05:31:00,
2013-02-06 22:42:00,25.0,19.0,30.07,ESE,121,4.0,5.0,79,0.00,,,0.00,,2013-02-07 05:42:00,
2013-02-06 22:52:00,24.0,18.0,30.07,ESE,108,4.0,5.0,79,0.00,,,0.00,,2013-02-07 05:52:00,
2013-02-06 23:01:00,24.0,19.0,30.06,East,95,3.0,7.0,80,0.00,,,0.00,,2013-02-07 06:01:00,
2013-02-06 23:11:00,24.0,19.0,30.06,East,95,3.0,7.0,80,0.00,,,0.00,,2013-02-07 06:11:00,
2013-02-06 23:22:00,23.0,19.0,30.06,ESE,117,7.0,10.0,83,0.00,,,0.00,,2013-02-07 06:22:00,
2013-02-06 23:31:00,24.0,19.0,30.06,ESE,117,9.0,12.0,80,0.00,,,0.00,,2013-02-07 06:31:00,
2013-02-06 23:42:00,24.0,19.0,30.06,ESE,117,9.0,12.0,80,0.00,,,0.00,,2013-02-07 06:42:00,
2013-02-06 23:52:00,24.0,18.0,30.06,ESE,115,9.0,12.0,78,0.00,,,0.00,,2013-02-07 06:52:00,